This is the latest recevied weather packets stored in our database for station/object N0OQA. If no packets are shown the sender has not sent any weather packets the latest 10 day(s).
| Time | Temp. | Humidity | Pressure | Rain* | Wind** | Luminosity | Snow |
|---|---|---|---|---|---|---|---|
| 1777614877 | 5.56° C | 63% | 1019.5 hPa | 0 mm | - | - | - |
| 1777614577 | 5.56° C | 63% | 1019.4 hPa | 0 mm | - | - | - |
| 1777614276 | 5.56° C | 62% | 1019.4 hPa | 0 mm | - | - | - |
| 1777613976 | 5.56° C | 63% | 1019.3 hPa | 0 mm | - | - | - |
| 1777613676 | 5.56° C | 63% | 1019.3 hPa | 0 mm | - | - | - |
| 1777613075 | 5.56° C | 64% | 1019.2 hPa | 0 mm | - | - | - |
| 1777612775 | 5.56° C | 65% | 1019.1 hPa | 0 mm | - | - | - |
| 1777612475 | 5.56° C | 67% | 1019.1 hPa | 0 mm | - | - | - |
| 1777612174 | 5.56° C | 69% | 1019.1 hPa | 0 mm | - | - | - |
| 1777611874 | 5° C | 72% | 1018.9 hPa | 0 mm | - | - | - |
| 1777611574 | 4.44° C | 77% | 1018.9 hPa | 0 mm | - | - | - |
| 1777611274 | 4.44° C | 81% | 1018.9 hPa | 0 mm | - | - | - |
| 1777610973 | 4.44° C | 83% | 1018.8 hPa | 0 mm | - | - | - |
| 1777610673 | 4.44° C | 84% | 1018.7 hPa | 0 mm | - | - | - |
| 1777610373 | 4.44° C | 84% | 1018.7 hPa | 0 mm | - | - | - |
| 1777610072 | 5° C | 84% | 1018.7 hPa | 0 mm | - | - | - |
| 1777609772 | 5° C | 83% | 1018.7 hPa | 0 mm | - | - | - |
| 1777609472 | 5° C | 83% | 1018.7 hPa | 0 mm | - | - | - |
| 1777609172 | 5° C | 83% | 1018.7 hPa | 0 mm | - | - | - |
| 1777608871 | 5° C | 82% | 1018.8 hPa | 0 mm | - | - | - |
| 1777608571 | 5° C | 82% | 1018.8 hPa | 0 mm | - | - | - |
| 1777608271 | 5° C | 82% | 1018.8 hPa | 0 mm | - | - | - |
| 1777607970 | 5° C | 82% | 1018.8 hPa | 0 mm | - | - | - |
| 1777607670 | 5° C | 82% | 1018.9 hPa | 0 mm | - | - | - |
| 1777607370 | 5° C | 80% | 1018.9 hPa | 0 mm | - | - | - |
* Rain since midnight (hover to see other rain measurements)
** Current wind speed in m/s (hover to see current wind gust speed)